Skagway, AK (99840)

6:53 AM AKST on February 07, 2016 (GMT -0900)
Skagway | | Change Station
CLOSE
Current Station
Airport
Location: Skagway,
Elevation: 16 ft
Nearby Weather Stations

Elev 16 ft 59.46 °N, 135.32 °W | Updated 1 hour ago

Scattered Clouds
Scattered Clouds
36 °F
Feels Like 32 °F
N
5
Wind Variable Wind from Variable

Today
High -- | Low -- °F
--% Chance of Precip.
Yesterday
High -- | Low -- °F
Precip. -- in
Pressure 30.09 in
Visibility 10.0 miles
Clouds Scattered Clouds 11000 ft
Windchill 32 °F
Dew Point 27 °F
Humidity 70%
Rainfall 0.00 in
Snow Depth Not available.
7:58 AM 4:33 PM
Waning Crescent, 1% visible
METAR PAGY 071453Z AUTO VRB04KT 10SM SCT110 02/M03 A3009 RMK AO2 SLP190 T00221028 58036 TSNO
Pressure 30.09 in
Visibility 10.0 miles
Clouds Scattered Clouds 11000 ft
Windchill 32 °F
Dew Point 27 °F
Humidity 70%
Rainfall 0.00 in
Snow Depth Not available.
7:58 AM 4:33 PM
Waning Crescent, 1% visible
METAR PAGY 071453Z AUTO VRB04KT 10SM SCT110 02/M03 A3009 RMK AO2 SLP190 T00221028 58036 TSNO

10-Day Weather Forecast

Almanac

Astronomy

Feb. 07, 2016 Rise Set
Actual Time
Civil Twilight
Nautical Twilight
Astronomical Twilight
Moon
Length of Visible Light
Length of Day
Tomorrow will be .
, % of the Moon is Illuminated

Today's Extremes

State Highs State Lows

Community

WunderPhotos

Upload Photos

1,891,216 photos uploaded!

WunderBlog® & News

Nearby

Air Quality

  Air Quality AQ Index Pollutant
Not available.

Snow Depth

Station Depth Elevation

Earthquake Activity

City Distance Mag. Time & Date
Minimum magnitude displayed is 2.5.

Coastal Water Temperatures

Place Temperature

Stations

Nearby Weather Stations

Station Location Temp. Windchill Dew Point Humidity Wind Precip. Elev Updated Type
                   

Watches & Warnings

There are currently no watches in effect.